星链-31638 (STARLINK-31638 )

导读

STARLINK-31638是美国星链(Starlink)项目的低轨互联网卫星,于2024年4月13日发射入轨,隶属于SpaceX公司打造的星链星座组网卫星序列。星链旨在为全球提供高速低延迟互联网服务,该卫星加入后进一步扩充了星座规模,推进了全球覆盖的组网进程,延续了星链星座高密度发射组网的节奏。

基本信息
目录编号:
59489
目录名称:
STARLINK-31638
国际标识:
2024-071F
轨道中心:
EARTH
卫星名称:
星链-31638
卫星全名:
星链-31638 (STARLINK-31638 )
卫星状态:
在轨 (已飞行792 天)
发射日期:
2024-04-13 UTC
国别 :
美国 (US)
星等 :
--
轨道信息
数据来源 国际轨道数据 AOE轨道数据
星历时间 2026-06-13T14:19:23+0800
1天前
查看轨道信息
2026-06-14T02:00:00+0800
17小时前
查看轨道信息
半长轴 6861.182km 6861.17km
偏心率 0.0001172 0.0001009
轨道倾角 42.995° 42.995°
近地点辐角 274.103° 203.968°
升交点赤经 159.875° 157.132°
平近点角 85.969° 314.823°
近地点 482.24km 482.34km
远地点 483.85km 483.726km
周期 94.267分钟 94.266分钟
每日圈数 15.275816 15.275855
详细信息
固有亮度:
5
最大亮度:
1.5
卫星平台:
Starlink v2.0 mini
覆盖范围:
全球
运营商:
太空探索技术公司
运营商所在国:
美国
制造商(研发单位):
太空探索技术公司
制造商所在国:
美国
使用方式:
暂无
卫星简介
星链(Starlink)计划是由太空探索技术公司(SpaceX)提出的一个巨型低轨卫星互联网星座项目,计划在2019年至2024年间在太空搭建由约1.2万颗卫星组成的“星链”网络,其中1584颗将部署在地球上空550千米处的近地轨道,并从2020年开始工作。该卫星仍在工作。
2D轨道图
3D轨道图
轨道高度分析图
轨道倾角分析图
轨道综合分析图
查看轨道综合分析图